AMC-1 (GE-1)

Last updated on Tue Jun 27 2023 00:02:49 GMT+0000 (Coordinated Universal Time)

1 24315U 96054A 23176.92641833 -.00000107 00000+0 00000+0 0 9991 2 24315 6.5042 69.8732 0001564 193.3531 160.9618 0.99511707 98119
UTC large
Height (km)
Speed (km/s)
/
Latitude / Longitude
Inclination (degrees)
Orbital Period (minutes)
Azimuth
Elevation
Range (km)
Doppler Factor

Next 0 passes for location: London (51.5072 / 0.1276)

Sorry there are no passes over London.
AMC-1 (GE-1)